TimeHST,TemperatureF,Dew PointF,Humidity,Sea Level PressureIn,VisibilityMPH,Wind Direction,Wind SpeedMPH,Gust SpeedMPH,PrecipitationIn,Events,Conditions,WindDirDegrees,DateUTC
12:41 AM,78.8,69.8,74,30.02,10.0,WSW,5.8,-,N/A,,Overcast,240,2013-05-23 10:41:00
12:53 AM,79.0,69.1,72,30.02,10.0,West,5.8,-,N/A,,Mostly Cloudy,260,2013-05-23 10:53:00
1:53 AM,79.0,69.1,72,30.01,10.0,West,4.6,-,N/A,,Partly Cloudy,260,2013-05-23 11:53:00
2:53 AM,78.1,69.1,74,30.00,10.0,SW,6.9,-,N/A,,Clear,230,2013-05-23 12:53:00
3:53 AM,78.1,70.0,76,29.99,10.0,Calm,Calm,-,N/A,,Mostly Cloudy,0,2013-05-23 13:53:00
4:53 AM,77.0,68.0,74,29.99,10.0,ESE,4.6,-,N/A,,Scattered Clouds,120,2013-05-23 14:53:00
5:53 AM,75.9,66.9,74,30.00,10.0,ESE,5.8,-,N/A,,Clear,110,2013-05-23 15:53:00
6:53 AM,79.0,66.9,66,30.01,10.0,East,4.6,-,N/A,,Clear,100,2013-05-23 16:53:00
7:53 AM,81.0,69.1,67,30.02,10.0,West,4.6,-,N/A,,Clear,270,2013-05-23 17:53:00
8:53 AM,80.1,69.1,69,30.03,10.0,WSW,5.8,-,N/A,,Partly Cloudy,250,2013-05-23 18:53:00
9:53 AM,82.0,70.0,67,30.03,10.0,WSW,8.1,-,N/A,,Partly Cloudy,240,2013-05-23 19:53:00
10:53 AM,84.0,70.0,63,30.01,10.0,SW,8.1,-,N/A,,Partly Cloudy,230,2013-05-23 20:53:00
11:53 AM,84.0,69.1,61,30.00,10.0,SW,9.2,-,N/A,,Clear,230,2013-05-23 21:53:00
12:53 PM,86.0,69.1,57,29.98,10.0,South,11.5,-,N/A,,Clear,190,2013-05-23 22:53:00
1:53 PM,86.0,69.1,57,29.97,10.0,South,12.7,20.7,N/A,,Clear,180,2013-05-23 23:53:00
2:53 PM,86.0,70.0,59,29.96,10.0,SSW,16.1,-,N/A,,Partly Cloudy,200,2013-05-24 00:53:00
3:53 PM,86.0,71.1,61,29.95,10.0,SSW,18.4,-,N/A,,Mostly Cloudy,200,2013-05-24 01:53:00
4:53 PM,84.0,70.0,63,29.95,10.0,SSW,15.0,-,N/A,,Mostly Cloudy,210,2013-05-24 02:53:00
5:53 PM,82.0,69.1,65,29.95,10.0,SSW,10.4,-,N/A,,Overcast,200,2013-05-24 03:53:00
6:53 PM,81.0,68.0,65,29.98,10.0,SSW,8.1,-,N/A,,Overcast,210,2013-05-24 04:53:00
7:53 PM,81.0,68.0,65,29.99,10.0,South,4.6,-,N/A,,Overcast,190,2013-05-24 05:53:00
8:53 PM,81.0,68.0,65,30.02,10.0,South,6.9,-,N/A,,Mostly Cloudy,180,2013-05-24 06:53:00
9:53 PM,80.1,64.0,58,30.02,10.0,ENE,12.7,17.3,N/A,,Mostly Cloudy,60,2013-05-24 07:53:00
10:53 PM,79.0,64.0,60,30.03,10.0,NE,12.7,-,N/A,,Clear,40,2013-05-24 08:53:00
11:53 PM,80.1,63.0,56,30.03,10.0,ENE,16.1,-,N/A,,Partly Cloudy,60,2013-05-24 09:53:00